DAL2110 KDCA-KPHL

Flight info

Callsign DAL2110
Flight time 0h 43m
Altitude 15000
Route DOCTR5 DOCTR DCT ODESA DCT
Aircraft A320/M-SDE3FGHIRWY/LB1

Departure

Time 2026-04-30 03:20
Airport Ronald Reagan Washington National Airport (KDCA)

Arrival

Time 2026-04-30 04:04
Airport Philadelphia International Airport (KPHL)
Time Latitude Longitude Altitude Speed Heading
2026-04-30 02:55 38.85561 -77.04218 24 ft 0 kts 326°
2026-04-30 03:06 38.85552 -77.04211 24 ft 2 kts 326°
2026-04-30 03:07 38.85540 -77.04201 25 ft 2 kts 326°
2026-04-30 03:07 38.85528 -77.04189 25 ft 2 kts 325°
2026-04-30 03:07 38.85516 -77.04188 25 ft 2 kts 29°
2026-04-30 03:07 38.85508 -77.04196 25 ft 0 kts 69°
2026-04-30 03:08 38.85506 -77.04206 25 ft 0 kts 73°
2026-04-30 03:14 38.85508 -77.04202 25 ft 3 kts 73°
2026-04-30 03:15 38.85519 -77.04153 24 ft 7 kts 73°
2026-04-30 03:15 38.85537 -77.04077 23 ft 10 kts 72°
2026-04-30 03:15 38.85570 -77.03982 20 ft 13 kts 42°
2026-04-30 03:15 38.85666 -77.03966 18 ft 14 kts 356°
2026-04-30 03:16 38.85772 -77.03977 18 ft 15 kts 355°
2026-04-30 03:16 38.85883 -77.03986 17 ft 16 kts 358°
2026-04-30 03:16 38.85981 -77.03967 15 ft 0 kts 15°
2026-04-30 03:18 38.85991 -77.03964 15 ft 3 kts 15°
2026-04-30 03:18 38.86032 -77.03947 15 ft 9 kts 21°
2026-04-30 03:19 38.86074 -77.03891 15 ft 10 kts 127°
2026-04-30 03:19 38.86004 -77.03861 15 ft 10 kts 169°
2026-04-30 03:19 38.85779 -77.03835 16 ft 72 kts 173°
2026-04-30 03:19 38.85018 -77.03750 19 ft 147 kts 173°
2026-04-30 03:20 38.83832 -77.03610 363 ft 180 kts 172°
2026-04-30 03:20 38.82661 -77.03481 1343 ft 167 kts 172°
2026-04-30 03:20 38.81516 -77.03313 2093 ft 172 kts 168°
2026-04-30 03:20 38.80294 -77.03029 2714 ft 189 kts 166°
2026-04-30 03:21 38.78961 -77.02702 3332 ft 206 kts 167°
2026-04-30 03:21 38.77478 -77.02319 3891 ft 230 kts 160°
2026-04-30 03:21 38.76090 -77.01284 4533 ft 237 kts 131°
2026-04-30 03:21 38.75253 -76.99454 4923 ft 248 kts 102°
2026-04-30 03:22 38.75119 -76.97205 5375 ft 261 kts 88°
2026-04-30 03:22 38.75141 -76.94891 6490 ft 262 kts 87°
2026-04-30 03:22 38.75441 -76.92675 7601 ft 260 kts 67°
2026-04-30 03:22 38.76454 -76.90795 8601 ft 265 kts 43°
2026-04-30 03:23 38.77993 -76.89439 9599 ft 270 kts 34°
2026-04-30 03:23 38.79595 -76.88218 10496 ft 275 kts 33°
2026-04-30 03:23 38.81291 -76.86927 11086 ft 291 kts 33°
2026-04-30 03:23 38.83076 -76.85553 11566 ft 309 kts 34°
2026-04-30 03:24 38.84907 -76.83998 11998 ft 326 kts 41°
2026-04-30 03:24 38.86532 -76.81870 12532 ft 337 kts 54°
2026-04-30 03:24 38.87744 -76.79349 13342 ft 339 kts 64°
2026-04-30 03:24 38.88782 -76.76643 14169 ft 341 kts 65°
2026-04-30 03:25 38.89807 -76.73879 14719 ft 344 kts 65°
2026-04-30 03:25 38.90826 -76.71133 14981 ft 344 kts 65°
2026-04-30 03:25 38.91864 -76.68348 14997 ft 344 kts 65°
2026-04-30 03:25 38.92896 -76.65588 14999 ft 344 kts 65°
2026-04-30 03:26 38.93931 -76.62817 15000 ft 344 kts 65°
2026-04-30 03:26 38.94900 -76.60022 15000 ft 343 kts 68°
2026-04-30 03:26 38.95837 -76.57174 15116 ft 347 kts 68°
2026-04-30 03:26 38.96775 -76.54308 15704 ft 353 kts 68°
2026-04-30 03:27 38.97719 -76.51417 16434 ft 352 kts 68°
2026-04-30 03:27 38.98665 -76.48512 16864 ft 353 kts 68°
2026-04-30 03:27 38.99607 -76.45635 16996 ft 353 kts 67°
2026-04-30 03:27 39.00745 -76.42838 16997 ft 354 kts 60°
2026-04-30 03:28 39.02167 -76.40260 16999 ft 355 kts 52°
2026-04-30 03:28 39.03854 -76.37926 17001 ft 357 kts 46°
2026-04-30 03:28 39.05638 -76.35740 16933 ft 357 kts 45°
2026-04-30 03:28 39.07448 -76.33566 16809 ft 356 kts 46°
2026-04-30 03:29 39.09254 -76.31398 16685 ft 356 kts 46°
2026-04-30 03:29 39.11083 -76.29199 16559 ft 355 kts 46°
2026-04-30 03:29 39.12879 -76.27035 16434 ft 354 kts 46°
2026-04-30 03:29 39.14652 -76.24894 16310 ft 354 kts 46°
2026-04-30 03:30 39.16446 -76.22726 16185 ft 353 kts 46°
2026-04-30 03:30 39.18241 -76.20554 16060 ft 353 kts 46°
2026-04-30 03:30 39.20011 -76.18409 15936 ft 352 kts 46°
2026-04-30 03:30 39.21806 -76.16233 15810 ft 351 kts 46°
2026-04-30 03:31 39.23563 -76.14100 15686 ft 351 kts 46°
2026-04-30 03:31 39.25333 -76.11950 15561 ft 350 kts 46°
2026-04-30 03:31 39.27119 -76.09780 15435 ft 350 kts 46°
2026-04-30 03:31 39.28868 -76.07653 15312 ft 349 kts 46°
2026-04-30 03:32 39.30640 -76.05496 15186 ft 349 kts 46°
2026-04-30 03:32 39.32419 -76.03330 15060 ft 348 kts 46°
2026-04-30 03:32 39.34177 -76.01187 15006 ft 348 kts 46°
2026-04-30 03:32 39.35915 -75.99068 15004 ft 348 kts 46°
2026-04-30 03:33 39.37685 -75.96908 15002 ft 348 kts 46°
2026-04-30 03:33 39.39440 -75.94765 15002 ft 348 kts 46°
2026-04-30 03:33 39.41217 -75.92593 15001 ft 348 kts 46°
2026-04-30 03:33 39.42491 -75.91033 15001 ft 348 kts 46°
2026-04-30 03:34 39.44061 -75.89113 15001 ft 348 kts 46°
2026-04-30 03:34 39.45810 -75.86970 15001 ft 348 kts 46°
2026-04-30 03:34 39.47648 -75.84895 14999 ft 350 kts 39°
2026-04-30 03:34 39.49697 -75.83192 15000 ft 353 kts 31°
2026-04-30 03:35 39.51936 -75.81906 15001 ft 356 kts 23°
2026-04-30 03:35 39.54292 -75.80962 15003 ft 358 kts 20°
2026-04-30 03:35 39.56678 -75.80096 15002 ft 358 kts 19°
2026-04-30 03:35 39.59093 -75.79230 15002 ft 358 kts 19°
2026-04-30 03:36 39.61467 -75.78376 15001 ft 358 kts 19°
2026-04-30 03:36 39.63878 -75.77503 15001 ft 358 kts 19°
2026-04-30 03:36 39.66245 -75.76643 15001 ft 358 kts 19°
2026-04-30 03:36 39.68654 -75.75765 15001 ft 358 kts 19°
2026-04-30 03:37 39.71035 -75.74896 15001 ft 358 kts 19°
2026-04-30 03:37 39.73444 -75.74015 15001 ft 358 kts 19°
2026-04-30 03:37 39.75820 -75.73145 15001 ft 358 kts 19°
2026-04-30 03:37 39.78197 -75.72274 15001 ft 358 kts 19°
2026-04-30 03:38 39.80607 -75.71390 15001 ft 358 kts 19°
2026-04-30 03:38 39.82980 -75.70519 15001 ft 358 kts 19°
2026-04-30 03:38 39.85360 -75.69644 15001 ft 358 kts 19°
2026-04-30 03:38 39.87767 -75.68759 15001 ft 358 kts 19°
2026-04-30 03:39 39.90165 -75.67877 15001 ft 358 kts 19°
2026-04-30 03:39 39.92537 -75.67004 15001 ft 358 kts 19°
2026-04-30 03:39 39.94929 -75.66122 15001 ft 358 kts 19°
2026-04-30 03:39 39.97313 -75.65243 15001 ft 358 kts 19°
2026-04-30 03:40 39.99681 -75.64370 14994 ft 355 kts 19°
2026-04-30 03:40 40.02054 -75.63496 14650 ft 349 kts 19°
2026-04-30 03:40 40.04369 -75.62640 14203 ft 343 kts 19°
2026-04-30 03:40 40.06644 -75.61800 13766 ft 338 kts 19°
2026-04-30 03:41 40.08880 -75.60973 13341 ft 333 kts 19°
2026-04-30 03:41 40.11067 -75.60162 12931 ft 327 kts 19°
2026-04-30 03:41 40.13245 -75.59355 12525 ft 322 kts 19°
2026-04-30 03:41 40.15377 -75.58565 12133 ft 317 kts 19°
2026-04-30 03:42 40.17462 -75.57742 11767 ft 309 kts 25°
2026-04-30 03:42 40.19129 -75.56173 11534 ft 291 kts 54°
2026-04-30 03:42 40.19871 -75.53830 11324 ft 278 kts 85°
2026-04-30 03:42 40.19540 -75.51386 11093 ft 273 kts 113°
2026-04-30 03:43 40.18465 -75.49361 10746 ft 273 kts 126°
2026-04-30 03:43 40.17256 -75.47450 10336 ft 272 kts 126°
2026-04-30 03:43 40.16075 -75.45554 9937 ft 271 kts 125°
2026-04-30 03:43 40.14901 -75.43629 9544 ft 270 kts 125°
2026-04-30 03:44 40.13741 -75.41698 9147 ft 269 kts 124°
2026-04-30 03:44 40.12584 -75.39758 8747 ft 268 kts 124°
2026-04-30 03:44 40.11462 -75.37869 8437 ft 264 kts 124°
2026-04-30 03:44 40.10355 -75.36008 8266 ft 254 kts 124°
2026-04-30 03:45 40.09262 -75.34258 8090 ft 247 kts 133°
2026-04-30 03:45 40.07809 -75.33066 7914 ft 245 kts 153°
2026-04-30 03:45 40.06251 -75.32273 7758 ft 237 kts 156°
2026-04-30 03:45 40.04739 -75.31548 7604 ft 230 kts 156°
2026-04-30 03:46 40.03263 -75.30836 7424 ft 224 kts 155°
2026-04-30 03:46 40.01812 -75.30123 7154 ft 222 kts 155°
2026-04-30 03:46 40.00368 -75.29407 6867 ft 222 kts 155°
2026-04-30 03:46 39.98947 -75.28699 6588 ft 221 kts 155°
2026-04-30 03:47 39.97510 -75.27983 6307 ft 220 kts 155°
2026-04-30 03:47 39.96104 -75.27259 6030 ft 219 kts 154°
2026-04-30 03:47 39.94701 -75.26489 5753 ft 218 kts 153°
2026-04-30 03:47 39.93315 -75.25714 5478 ft 217 kts 153°
2026-04-30 03:48 39.91931 -75.24935 5204 ft 217 kts 153°
2026-04-30 03:48 39.90542 -75.24149 4929 ft 216 kts 153°
2026-04-30 03:48 39.89177 -75.23374 4659 ft 215 kts 153°
2026-04-30 03:48 39.87809 -75.22593 4387 ft 215 kts 153°
2026-04-30 03:49 39.86447 -75.21812 4117 ft 214 kts 153°
2026-04-30 03:49 39.85091 -75.21031 3849 ft 213 kts 154°
2026-04-30 03:49 39.83722 -75.20299 3581 ft 213 kts 157°
2026-04-30 03:49 39.82338 -75.19648 3317 ft 212 kts 158°
2026-04-30 03:50 39.80932 -75.19004 3066 ft 211 kts 158°
2026-04-30 03:50 39.79563 -75.18379 3006 ft 211 kts 158°
2026-04-30 03:50 39.78145 -75.17916 2992 ft 214 kts 179°
2026-04-30 03:50 39.76707 -75.18452 2995 ft 218 kts 214°
2026-04-30 03:51 39.75723 -75.19920 3000 ft 219 kts 246°
2026-04-30 03:51 39.75229 -75.21781 3005 ft 219 kts 256°
2026-04-30 03:51 39.74862 -75.23719 3003 ft 219 kts 258°
2026-04-30 03:51 39.74526 -75.25635 3001 ft 219 kts 258°
2026-04-30 03:52 39.74191 -75.27577 3001 ft 219 kts 258°
2026-04-30 03:52 39.73863 -75.29479 3001 ft 219 kts 258°
2026-04-30 03:52 39.73531 -75.31417 3000 ft 219 kts 258°
2026-04-30 03:52 39.73199 -75.33344 3000 ft 219 kts 258°
2026-04-30 03:53 39.72869 -75.35274 3000 ft 219 kts 258°
2026-04-30 03:53 39.72538 -75.37204 3000 ft 219 kts 258°
2026-04-30 03:53 39.72207 -75.39142 3000 ft 219 kts 258°
2026-04-30 03:53 39.71878 -75.41061 3000 ft 219 kts 259°
2026-04-30 03:54 39.71546 -75.43005 3000 ft 219 kts 259°
2026-04-30 03:54 39.71218 -75.44925 3000 ft 219 kts 259°
2026-04-30 03:54 39.70891 -75.46845 3000 ft 219 kts 259°
2026-04-30 03:54 39.70564 -75.48761 3000 ft 219 kts 259°
2026-04-30 03:55 39.70236 -75.50687 3000 ft 219 kts 259°
2026-04-30 03:55 39.69904 -75.52642 3000 ft 219 kts 259°
2026-04-30 03:55 39.69577 -75.54568 3000 ft 219 kts 259°
2026-04-30 03:55 39.69505 -75.56513 2988 ft 216 kts 287°
2026-04-30 03:56 39.70227 -75.58148 2995 ft 211 kts 322°
2026-04-30 03:56 39.71497 -75.59042 3006 ft 207 kts 344°
2026-04-30 03:56 39.72869 -75.59579 3003 ft 207 kts 348°
2026-04-30 03:56 39.74258 -75.60049 3002 ft 206 kts 348°
2026-04-30 03:57 39.75648 -75.60503 3001 ft 206 kts 349°
2026-04-30 03:57 39.77068 -75.60716 2993 ft 203 kts 10°
2026-04-30 03:57 39.78331 -75.60010 3000 ft 201 kts 40°
2026-04-30 03:57 39.79355 -75.58769 3003 ft 200 kts 47°
2026-04-30 03:58 39.80300 -75.57448 3002 ft 200 kts 49°
2026-04-30 03:58 39.81228 -75.56117 3001 ft 200 kts 49°
2026-04-30 03:58 39.82157 -75.54750 3000 ft 200 kts 54°
2026-04-30 03:58 39.82736 -75.53127 3000 ft 200 kts 76°
2026-04-30 03:59 39.83001 -75.51354 3000 ft 199 kts 81°
2026-04-30 03:59 39.83178 -75.49633 2985 ft 186 kts 86°
2026-04-30 03:59 39.83150 -75.47952 2993 ft 184 kts 93°
2026-04-30 03:59 39.83036 -75.46300 2997 ft 184 kts 94°
2026-04-30 04:00 39.82962 -75.44635 2810 ft 184 kts 88°
2026-04-30 04:00 39.83071 -75.42965 2455 ft 189 kts 80°
2026-04-30 04:00 39.83325 -75.41330 2223 ft 183 kts 76°
2026-04-30 04:00 39.83644 -75.39717 1922 ft 180 kts 75°
2026-04-30 04:01 39.83955 -75.38200 1718 ft 171 kts 75°
2026-04-30 04:01 39.84254 -75.36722 1487 ft 161 kts 75°
2026-04-30 04:01 39.84526 -75.35350 1256 ft 151 kts 75°
2026-04-30 04:01 39.84777 -75.34081 1050 ft 141 kts 75°
2026-04-30 04:02 39.85015 -75.32884 860 ft 131 kts 75°
2026-04-30 04:02 39.85240 -75.31750 702 ft 130 kts 75°
2026-04-30 04:02 39.85465 -75.30618 538 ft 129 kts 75°
2026-04-30 04:02 39.85692 -75.29477 365 ft 129 kts 75°
2026-04-30 04:03 39.85914 -75.28361 189 ft 126 kts 74°
2026-04-30 04:03 39.86062 -75.27615 72 ft 123 kts 74°
2026-04-30 04:03 39.86263 -75.26617 23 ft 102 kts 76°
2026-04-30 04:03 39.86398 -75.25940 22 ft 52 kts 76°
2026-04-30 04:04 39.86445 -75.25700 21 ft 2 kts 76°
2026-04-30 04:04 39.86449 -75.25677 21 ft 12 kts 86°
2026-04-30 04:04 39.86373 -75.25578 19 ft 18 kts 164°
2026-04-30 04:04 39.86247 -75.25534 18 ft 19 kts 165°
2026-04-30 04:05 39.86194 -75.25435 19 ft 15 kts 76°
2026-04-30 04:05 39.86244 -75.25373 19 ft 0 kts 345°